Location: Goudex
(43.3760°N, 0.9543°E)
Time: 01:03:00
(UTC+00:00)

Daily predictions for brighter satellites

Satellite Brightness Start Highest point End
(mag) Time Altitude Azimuth Time Altitude Azimuth Time Altitude Azimuth
ATLAS 2AS CENTAUR R/B 4.1 03:10:56 33° NNE 03:11:33 34° NE 03:18:02 10° E
ATLAS CENTAUR R/B 4.3 03:23:57 17° E 03:23:57 17° E 03:26:28 10° ENE
SL-4 R/B 4.5 03:42:31 25° ENE 03:42:31 25° ENE 03:44:48 10° E
Cosmos 2082 Rocket 4.3 03:44:43 17° NNE 03:44:43 17° NNE 03:45:57 10° NNE
Lacrosse 5 4.1 03:48:48 18° NNE 03:48:48 18° NNE 03:50:14 10° NE
PAYLOAD A 4.4 04:00:01 10° NNE 04:05:15 66° E 04:05:15 66° E
Meteor 2-20 4.5 04:04:44 58° NNE 04:05:58 77° E 04:12:06 10° SSE
CZ-2C R/B 3.3 04:01:21 10° NNE 04:05:11 45° ENE 04:05:11 45° ENE
Cosmos 2360 Rocket 4.0 04:05:07 15° N 04:08:43 27° NE 04:13:27 10° ESE
CZ-3B R/B 4.2 04:13:01 15° SSW 04:14:22 15° S 04:17:45 10° SSE
SL-16 R/B 2.6 04:13:13 49° NNE 04:14:29 61° ENE 04:20:05 10° SE
Cosmos 1980 Rocket 4.4 04:19:42 12° S 04:19:42 12° S 04:20:10 10° S
ASTEX 1 3.9 04:11:26 10° SSE 04:15:21 55° SE 04:15:21 55° SE
Cosmos 2100 Rocket 4.3 04:14:23 10° S 04:20:29 65° E 04:26:34 10° NNE
Cosmos 1447 Rocket 4.4 04:21:33 72° WSW 04:21:33 72° WSW 04:27:37 10° S
Cosmos 2322 Rocket 2.6 04:19:20 38° N 04:21:22 60° ENE 04:26:58 10° SE
SJ 16-02 3.9 04:25:38 12° N 04:25:38 12° N 04:25:56 10° N
Cosmos 1766 Rocket 4.3 04:17:58 10° SSE 04:22:08 50° E 04:26:21 10° NNE
NOSS 3-4 (A) 4.3 04:19:35 30° NNW 04:23:11 58° NE 04:30:43 10° SE
NOSS 3-4 (C) 4.3 04:19:40 30° NNW 04:23:17 57° NE 04:30:48 10° SE
COSMOS 2487 4.1 04:29:40 32° E 04:29:40 32° E 04:32:18 10° NE
STARLINK-69 4.4 04:30:31 50° ENE 04:30:31 50° ENE 04:33:38 10° NE
NOSS 3-3 (A) 4.2 04:31:17 51° NW 04:31:17 51° NW 04:37:29 10° NNE
STARLINK-66 4.3 04:32:01 52° ENE 04:32:01 52° ENE 04:35:12 10° NE
NOSS 3-3 (C) 4.2 04:31:22 51° NW 04:31:22 51° NW 04:37:35 10° NNE
STARLINK-41 4.2 04:33:39 54° ENE 04:33:39 54° ENE 04:36:55 10° NE
STARLINK-64 4.1 04:35:18 55° NE 04:35:18 55° NE 04:38:36 10° NE
COSMO-SKYMED 1 4.0 04:31:14 10° SE 04:35:12 36° ENE 04:39:12 10° N
STARLINK-70 4.0 04:36:48 58° NE 04:36:48 58° NE 04:40:11 10° NE
STARLINK-68 4.0 04:38:37 58° NE 04:38:37 58° NE 04:42:01 10° NE
STARLINK-58 3.9 04:39:49 61° NE 04:39:49 61° NE 04:43:19 10° NE
Cosmos 1802 Rocket 4.3 04:34:08 10° S 04:40:31 71° E 04:46:54 10° NNE
STARLINK-62 3.9 04:41:47 62° NNE 04:41:47 62° NNE 04:45:20 10° NE
STARLINK-63 3.8 04:43:16 65° NNE 04:43:16 65° NNE 04:46:55 10° NE
STARLINK 3.6 04:44:30 72° NNE 04:44:30 72° NNE 04:48:18 10° NE
Cosmos 2298 Rocket 4.1 04:40:11 10° SSW 04:45:28 77° ESE 04:50:47 10° NNE
STARLINK-72 3.6 04:46:20 70° NNE 04:46:20 70° NNE 04:50:08 10° NE
STARLINK-59 3.6 04:49:40 68° N 04:49:40 68° N 04:53:33 10° NE
Cosmos 2173 Rocket 3.8 04:43:18 10° S 04:49:34 82° W 04:55:46 10° N
STARLINK-57 3.6 04:51:14 68° N 04:51:14 68° N 04:55:12 10° NE
STARLINK-28 3.6 04:54:27 65° NNW 04:54:27 65° NNW 04:58:31 10° NE
MSX 4.3 04:50:05 10° N 04:54:52 39° NW 04:54:52 39° NW
COBE Rocket 3.8 04:50:37 10° S 04:55:45 80° WSW 05:00:49 10° NNW
STARLINK-75 3.7 04:55:52 58° NNW 04:55:52 58° NNW 04:59:52 10° NE
Lacrosse 5 rocket 3.1 04:55:24 17° N 04:56:09 19° NNE 04:58:45 10° ENE
STARLINK-53 3.6 04:56:14 64° NNW 04:56:16 64° NNW 05:00:24 10° NE
COSMOS 2455 2.9 04:54:46 41° WNW 04:56:37 57° WSW 05:02:28 10° SSE
STARLINK-54 3.6 04:57:37 62° NW 04:57:41 62° NNW 05:01:49 10° NE
Cosmos 2219 Rocket 4.2 04:53:38 10° N 04:58:07 23° NE 05:02:35 10° ESE
Cosmos 2061 Rocket 4.0 04:53:46 10° S 05:00:01 87° E 05:06:15 10° N
ATLAS CENTAUR R/B 1.7 05:00:15 41° WSW 05:01:49 66° NW 05:06:36 10° NNE
Cosmos 1825 2.5 04:58:08 10° S 05:01:52 66° E 05:05:36 10° NNE
STARLINK-37 3.6 05:02:20 56° NW 05:02:37 57° NNW 05:06:44 10° NE
STARLINK-55 3.6 05:02:24 57° NW 05:02:42 59° NNW 05:06:48 10° NE
Cosmos 2333 Rocket 4.1 04:58:00 10° N 05:02:49 26° NE 05:07:37 10° ESE
ATLAS 2AS CENTAUR R/B 2.8 04:58:25 24° NW 05:03:12 72° WSW 05:10:08 10° SSE
STARLINK-34 3.7 05:04:04 54° NW 05:04:25 56° NNW 05:08:30 10° NE
STARLINK-24 3.7 05:05:11 53° NW 05:05:36 55° NNW 05:09:42 10° NE
STARLINK-81 3.6 05:05:23 54° WNW 05:05:52 59° NNW 05:09:58 10° NE
Cosmos 1151 Rocket 2.9 05:03:36 13° N 05:07:33 83° W 05:11:53 10° S
STARLINK-77 3.7 05:08:33 50° WNW 05:09:10 56° NNW 05:13:16 10° NE
STARLINK-25 3.7 05:10:16 47° WNW 05:10:58 54° NNW 05:15:02 10° NE
STARLINK-71 3.9 05:12:08 44° WNW 05:12:48 50° NNW 05:16:52 10° NE
Cosmos 1484 Rocket 2.7 05:09:54 10° N 05:13:55 78° WNW 05:17:56 10° SSW
STARLINK-79 3.8 05:13:21 44° WNW 05:14:10 52° NNW 05:18:15 10° NE
STARLINK-46 4.1 05:14:06 28° N 05:14:35 29° NNE 05:17:15 10° E
Cosmos 2228 Rocket 4.0 05:10:53 10° N 05:15:22 51° ENE 05:19:50 10° SSE
Okean O Rocket 2.6 05:11:11 10° NNE 05:15:24 47° E 05:19:36 10° S
STARLINK-78 3.8 05:14:59 42° WNW 05:15:52 50° NNW 05:19:55 10° NE
BREEZE-M DEB (TANK) 3.0 05:17:33 22° N 05:17:33 22° N 05:18:54 10° NE
Cosmos 1328 Rocket 3.5 05:15:22 16° NNW 05:18:41 57° W 05:22:53 10° S
STARLINK-49 3.9 05:18:09 39° WNW 05:19:11 48° NNW 05:23:14 10° NE
Cosmos 1937 Rocket 4.5 05:20:25 25° NW 05:20:25 25° NW 05:24:15 10° N
SL-4 R/B 2.4 05:18:09 33° WNW 05:20:16 69° SW 05:25:02 10° SE
ALOS 2.6 05:15:56 10° NNE 05:20:37 70° ESE 05:25:16 10° S
STARLINK-27 3.9 05:19:48 37° WNW 05:20:54 47° NNW 05:24:56 10° NE
STARLINK-74 4.0 05:21:20 36° WNW 05:22:31 46° NNW 05:26:32 10° NE
SKYMED 2 3.5 05:18:56 10° S 05:23:15 69° WSW 05:27:35 10° NNW
Cosmos 1515 Rocket 3.4 05:19:17 10° N 05:23:38 83° W 05:27:58 10° S
STARLINK-39 4.0 05:22:57 34° WNW 05:24:12 45° NNW 05:28:12 10° NE
Cosmos 1238 Rocket 4.3 05:19:00 10° S 05:25:29 69° E 05:31:18 10° NNE
Cosmos 2082 Rocket 4.2 05:26:35 11° NNW 05:26:35 11° NNW 05:27:45 10° NNW
STARLINK 4.0 05:24:36 33° WNW 05:25:55 44° NNW 05:29:55 10° NE
STARLINK-42 4.1 05:25:16 32° WNW 05:26:34 43° NNW 05:30:33 10° NE
Cosmos 1743 Rocket 3.5 05:23:11 10° S 05:27:30 85° E 05:31:51 10° N
PAYLOAD B 4.2 05:23:51 10° NNE 05:29:23 86° ESE 05:34:53 10° SSW
Cosmos 1459 Rocket 4.3 05:23:33 10° SW 05:29:23 42° WNW 05:35:20 10° N
STARLINK-21 4.1 05:28:03 30° WNW 05:29:32 42° NNW 05:33:30 10° NE
Lacrosse 5 3.6 05:28:01 15° NNW 05:29:50 18° N 05:33:17 10° NE
Cosmos 1408 3.1 05:27:55 10° SW 05:31:18 34° WNW 05:34:42 10° N
STARLINK-45 4.2 05:29:58 28° WNW 05:31:26 39° NNW 05:35:20 10° NE
Cosmos 2151 4.0 05:33:08 25° WNW 05:33:08 25° WNW 05:36:33 10° NNW
Meteor 1-26 Rocket 4.4 05:27:28 10° N 05:33:11 74° E 05:38:42 10° SSE
STARLINK-76 4.2 05:32:34 27° WNW 05:34:15 40° NNW 05:38:11 10° NE
Cosmos 1400 Rocket 3.0 05:31:06 10° N 05:35:11 73° ENE 05:39:10 10° SSE
STARLINK 4.2 05:34:12 26° WNW 05:35:57 39° NNW 05:39:52 10° NE
CZ-4B DEB 4.1 05:30:29 10° N 05:35:58 75° WNW 05:41:26 10° SSW
STARLINK-32 4.2 05:35:44 25° WNW 05:37:34 38° NNW 05:41:28 10° NE
Helios 1A Rocket 2.9 05:34:43 10° NNE 05:38:51 87° ESE 05:42:54 10° SSW
STARLINK-40 4.3 05:37:22 24° WNW 05:39:15 38° NNW 05:43:08 10° NE
Meteor PRIRODA 4.5 05:36:50 10° N 05:39:59 27° WNW 05:43:05 10° SW
Cosmos 1125 Rocket 3.4 05:34:43 10° SSW 05:39:59 74° WNW 05:45:16 10° NNE
Gbstr 26 Del rocket 4.1 05:38:46 18° NW 05:40:16 23° N 05:43:20 10° NE
STARLINK-44 4.3 05:38:56 23° WNW 05:40:53 37° NNW 05:44:45 10° NE
Cosmos 1725 Rocket 4.0 05:35:52 10° SSW 05:42:02 61° W 05:48:18 10° N
Cosmos 2016 Rocket 4.2 05:36:14 10° SSW 05:42:15 48° WNW 05:48:23 10° N
STARLINK-36 4.3 05:40:33 22° WNW 05:42:36 36° NNW 05:46:28 10° NE
Cosmos 1408 Rocket 4.1 05:38:46 10° SW 05:42:40 33° WNW 05:46:37 10° N
STARLINK-67 3.4 05:42:35 27° WSW 05:43:15 32° SW 05:45:39 10° SSE
Cosmos 2237 4.2 05:37:48 10° NNW 05:43:29 66° WSW 05:49:06 10° SSE
CZ-2C R/B 3.6 05:40:30 10° NNW 05:43:52 19° WNW 05:44:32 19° WNW
STARLINK-35 4.4 05:46:55 19° WNW 05:49:14 34° NNW 05:53:03 10° NE
Cosmos 1500 Rocket 3.6 05:45:53 10° SSW 05:50:17 61° W 05:54:42 10° N
STARLINK-51 4.5 05:48:32 18° WNW 05:50:57 33° NNW 05:54:45 10° NE
STARLINK-30 4.5 05:50:13 18° WNW 05:52:42 33° NNW 05:56:30 10° NE
Cosmos 2360 Rocket 2.4 05:47:31 10° NW 05:53:01 52° WSW 05:58:29 10° S
COSMOS 2428 3.3 05:49:18 10° NNW 05:54:58 58° ENE 06:00:36 10° SE
Cosmos 1833 4.3 05:50:33 10° SW 05:56:03 55° WNW 06:01:36 10° NNE
Abrixas rocket 2.8 05:55:29 18° WNW 05:57:15 36° NNW 06:00:05 10° ENE
NOAA 6 4.0 05:52:11 10° N 05:57:18 72° WNW 06:02:23 10° SSW
SJ-7 4.4 05:53:08 10° NNE 05:57:18 88° E 06:01:24 10° SSW
Sich 1 4.1 05:53:38 10° SSE 05:57:44 48° E 06:01:52 10° NNE
Cosmos 2237 Rocket 4.1 05:53:08 10° N 05:57:53 26° NE 06:02:36 10° ESE
SL-16 R/B 3.5 05:55:10 14° WNW 05:58:03 20° W 06:02:02 10° SW
COSMOS 2487 4.1 06:03:23 13° WNW 06:04:23 15° WNW 06:06:26 10° NNW
Cosmos 2322 Rocket 3.5 06:01:13 11° WNW 06:04:54 21° W 06:08:59 10° SSW
Tsikada Rocket 4.4 06:03:30 10° NNW 06:09:28 43° W 06:15:20 10° SSW
Cosmos 972 Rocket 4.2 06:05:41 10° SW 06:10:40 54° WNW 06:16:13 10° N
COSMO-SKYMED 1 3.8 06:08:09 10° SW 06:11:28 21° W 06:14:48 10° NW
Radarsat Rocket 4.0 06:06:01 10° NNE 06:11:52 88° WNW 06:17:56 10° SSW
CZ-4 R/B 4.4 06:11:31 10° NE 06:14:00 16° E 06:16:28 10° SE
Cosmos 1437 4.4 06:16:46 10° WSW 06:18:25 14° WNW 06:20:05 10° NW
RESURS DK-1 3.5 06:17:56 10° NNW 06:21:55 43° ENE 06:25:52 10° SE
FENGYUN 3A 4.2 06:18:48 10° N 06:23:44 36° WNW 06:28:36 10° SW
Meteor 2-3 Rocket 4.2 06:22:15 10° SW 06:27:38 40° WNW 06:33:05 10° N
